Location: Apollinopolis Magna
(24.9792°N, 32.8772°E)
Time: 19:43:49
(UTC+00:00)

Cosmos 2219 Rocket - Pass Details

Date: 02 March 2021
Orbit: 827 x 848 km, 71.0° (Epoch: 09 April)

Event Time Altitude Azimuth Distance (km) Brightness Sun altitude
Rises 17:52:52 0° 211° (SSW) 3,349 5.6 -28.3°
Reaches altitude 10° 17:55:22 10° 217° (SW) 2,419 4.9 -28.9°
Maximum altitude 18:00:41 48° 291° (WNW) 1,071 3.0 -30.1°
Enters shadow 18:04:29 19° 358° (N) 1,885 4.1 -30.9°
